Location: Newark
(44.1667°N, 8.2500°E)
Time: 21:09:28
(UTC+00:00)

Envisat - Pass Details

Date: 14 November 2019
Orbit: 764 x 766 km, 98.1° (Epoch: 12 December)

Event Time Altitude Azimuth Distance (km) Brightness Sun altitude
Rises 17:00:47 0° 154° (SSE) 3,220 6.1 -10.8°
Reaches altitude 10° 17:03:06 10° 150° (SSE) 2,298 5.3 -11.2°
Maximum altitude 17:08:04 58° 72° (ENE) 890 3.0 -12.0°
Drops below altitude 10° 17:13:04 10° 354° (N) 2,313 5.4 -12.9°
Sets 17:15:24 0° 351° (N) 3,244 6.2 -13.3°
